[[{"header":{"parameterUnit":"m.s-1","parameterCategory":1,"la1":30.2991,"la2":30.254,"lo1":-89.0895,"lo2":-89.0444,"dy":0.0017,"dx":0.0017,"nx":28,"ny":28,"refTime":"2025-06-13T21:00:00:Z","depth":0,"parameterNumber":2,"parameterNumberName":"U-component_of_WINDS"},"data":[0,0,0,0,0,0,0,0,0,0,0,0,0,0,0,0,0,0,0,0,0,0,0,0,0,0,0,0,0,0,0,0,0,0,0,0,0,0,0,0,0,0,0,0,0,0,0,0,0,0,0,0,0,0,0,0,0,0,-0.0586,-0.0586,0,-0.0652,-0.0652,-0.0653,-0.077,-0.0773,-0.0775,-0.0777,-0.0836,-0.0835,-0.0835,0,0,0,0,0,0,0,0,0,0,0,0,0,-0.0555,-0.0555,-0.0586,-0.0587,-0.0587,-0.0652,-0.0652,-0.0653,-0.077,-0.0773,-0.0776,-0.0778,-0.0836,-0.0835,-0.0835,0,0,0,0,0,0,0,0,0,0,0,0,0,-0.0589,-0.0555,-0.0586,-0.0654,-0.066,-0.0651,-0.0652,-0.0654,-0.077,-0.0773,-0.0776,-0.0779,-0.0836,-0.0835,-0.0835,-0.0762,0,0,-0.0832,-0.0832,0,0,0,0,0,0,0,0,-0.0587,-0.059,-0.0643,-0.0649,-0.0656,-0.0707,-0.0663,-0.069,-0.0769,-0.0728,-0.0777,-0.0781,-0.0789,-0.0793,-0.0797,-0.0765,-0.0767,-0.0832,-0.0832,-0.0831,-0.0831,0,0,0,0,0,0,0,-0.0584,-0.0588,-0.0612,-0.0643,-0.0652,-0.0679,-0.0687,-0.0669,-0.0738,-0.0732,-0.074,-0.0747,-0.0794,-0.0798,-0.08,-0.0768,-0.0832,-0.0831,-0.0831,-0.083,-0.0681,-0.0677,0,0,0,0,0,0,-0.0573,-0.0585,-0.061,-0.0614,-0.063,-0.0677,-0.0686,-0.0687,-0.0739,-0.0751,-0.0744,-0.0752,-0.0798,-0.08,-0.0802,-0.0722,-0.0831,-0.083,-0.083,-0.0684,-0.068,-0.0676,0,0,0,0,0,0,-0.0572,-0.0574,-0.0607,-0.0602,-0.0608,-0.0674,-0.0673,-0.0686,-0.0691,-0.0749,-0.0761,-0.0736,-0.08,-0.0803,-0.0772,-0.0725,-0.083,-0.0829,-0.0688,-0.0683,-0.0678,-0.0559,0,0,0,0,0,0,-0.057,-0.0573,-0.0547,-0.06,-0.0608,-0.0577,-0.067,-0.0685,-0.069,-0.0701,-0.0744,-0.0754,-0.0803,-0.0773,-0.0771,-0.0726,-0.0829,-0.0693,-0.0686,-0.068,-0.0567,-0.055,-0.0536,0,0,0,0,0,-0.0569,-0.0509,-0.0545,-0.0547,-0.0577,-0.0574,-0.0578,-0.0638,-0.0686,-0.066,-0.0697,-0.0753,-0.0731,-0.0768,-0.0768,-0.0722,-0.0696,-0.0688,-0.068,-0.0575,-0.0554,-0.0536,0,0,0,0,0,0,-0.0444,-0.0517,-0.0558,-0.0514,-0.0537,-0.0594,-0.0563,-0.0614,-0.0622,-0.0632,-0.0704,-0.0712,-0.0672,-0.0694,-0.0734,-0.0655,-0.0722,-0.0714,-0.0642,-0.0623,-0.0607,-0.0602,-0.0828,0,0,0,0,0,-0.0412,-0.0406,-0.0469,-0.0423,-0.0434,-0.0496,-0.0497,-0.0542,-0.0568,-0.0577,-0.0613,-0.0633,-0.0632,-0.0629,-0.063,-0.0572,-0.0583,-0.054,-0.0524,-0.0511,-0.0502,-0.0474,-0.0456,-0.065,-0.065,-0.0651,0,0,-0.0345,-0.0384,-0.0375,-0.04,-0.0423,-0.0413,-0.0503,-0.0489,-0.0482,-0.0574,-0.0548,-0.0575,-0.0603,-0.0558,-0.054,-0.0575,-0.0451,-0.0501,-0.049,-0.0489,-0.0464,-0.0446,-0.0429,-0.0645,-0.0646,-0.0647,0,0,-0.0217,-0.0246,-0.0213,-0.0236,-0.0272,-0.0314,-0.0306,-0.0356,-0.0378,-0.0354,-0.0424,-0.0415,-0.041,-0.0428,-0.0437,-0.0319,-0.037,-0.0317,-0.0234,-0.0206,-0.0191,-0.0177,-0.0136,-0.012,-0.0309,-0.0308,-0.0308,0,-0.0128,-0.0118,-0.0188,-0.017,-0.0179,-0.0266,-0.0232,-0.025,-0.0283,-0.0286,-0.0326,-0.0324,-0.0348,-0.031,-0.0282,-0.0286,-0.0278,-0.0312,-0.0188,-0.0175,-0.0164,-0.0125,-0.0109,-0.0302,-0.0302,-0.0303,-0.0304,0,-0.0007,0.0001,0.0032,-0.0002,-0.0007,0.0019,-0.0045,-0.0042,-0.0086,-0.0124,-0.0098,-0.0132,-0.0143,-0.0137,-0.0179,-0.0105,-0.0126,-0.0175,-0.0244,-0.0137,-0.0102,-0.0087,-0.0292,-0.0295,-0.0297,-0.0298,0,0,0.02,0.0124,0.0137,0.0119,0.0071,0.0077,0.01,0.0085,0.009,0.0069,0.0087,0.0091,0.0044,0.0035,-0.001,0.0014,0.0109,-0.0039,-0.0041,-0.001,0.0188,0.0226,0.0244,0.0073,0.0076,0.0078,0.019,0,0.0318,0.0348,0.0285,0.0332,0.0338,0.0254,0.0273,0.0247,0.0212,0.0214,0.0176,0.018,0.0117,0.011,0.0131,0.0093,0.0148,0.0084,0.0091,0.0092,0.0101,0.0263,0.0303,0.0411,0.0204,0.0206,0.0208,0,0.046,0.0442,0.0489,0.0436,0.0436,0.0454,0.0435,0.0437,0.0406,0.0378,0.0366,0.0312,0.0331,0.0264,0.029,0.0248,0.0247,0.0229,0.0232,0.0231,0.0157,0.0267,0.0444,0.046,0.0229,0.0227,0.0226,0,0.0606,0.0594,0.0619,0.0607,0.0546,0.0561,0.0537,0.0501,0.0496,0.0481,0.0477,0.0465,0.0459,0.0452,0.0396,0.0352,0.043,0.0358,0.0409,0.0411,0.043,0.043,0.061,0.0429,0.0429,0.0428,0.0428,0,0.0744,0.0776,0.0683,0.07,0.0733,0.066,0.0696,0.0664,0.0632,0.0642,0.0569,0.0581,0.0506,0.0509,0.0466,0.0494,0.0492,0.0472,0.046,0.0478,0.0481,0.0478,0.0469,0.0433,0.0432,0.0431,0.043,0,0.0914,0.0853,0.0875,0.0814,0.0799,0.0826,0.0775,0.0788,0.0746,0.0759,0.0758,0.0695,0.0695,0.0637,0.0627,0.0598,0.0645,0.062,0.0655,0.0647,0.0701,0.0697,0.0886,0.0907,0.0713,0.0714,0.0716,0,0.1006,0.1028,0.0968,0.0967,0.0945,0.0946,0.0939,0.0868,0.0864,0.0828,0.0846,0.0839,0.083,0.0834,0.0788,0.078,0.0754,0.082,0.0752,0.0769,0.0755,0.0754,0.0756,0.0836,0.0838,0.084,0.0842,0,0.1177,0.1145,0.1136,0.1117,0.111,0.1092,0.107,0.1074,0.0996,0.0996,0.0993,0.0985,0.0972,0.0966,0.0948,0.0926,0.0872,0.0863,0.0874,0.0894,0.0913,0.0903,0.0694,0.0859,0.0858,0.0856,0.0855,0.0855,0.1311,0.1326,0.1284,0.1277,0.1252,0.1232,0.124,0.1198,0.1193,0.1174,0.1133,0.1137,0.1104,0.1073,0.1055,0.1058,0.1025,0.1041,0.1046,0.1051,0.1061,0.0912,0.1054,0.1054,0.1053,0.1053,0.1052,0,0.1478,0.1446,0.144,0.1409,0.1403,0.1348,0.132,0.1319,0.1322,0.1294,0.1285,0.1281,0.1274,0.1227,0.1215,0.1227,0.1202,0.1226,0.1225,0.1221,0.1092,0.1083,0.1247,0.1246,0.1246,0.1246,0.1246,0.1246,0.1564,0.1585,0.1548,0.1557,0.1525,0.1525,0.1514,0.1495,0.1472,0.147,0.1462,0.143,0.1394,0.1379,0.1371,0.1357,0.1357,0.139,0.1368,0.1249,0.123,0.1212,0.1203,0.139,0.139,0.1497,0.1498,0.1499]},{"header":{"parameterUnit":"m.s-1","parameterCategory":1,"la1":30.2991,"la2":30.254,"lo1":-89.0895,"lo2":-89.0444,"dy":0.0017,"dx":0.0017,"nx":28,"ny":28,"refTime":"2025-06-13T21:00:00:Z","depth":0,"parameterNumber":3,"parameterNumberName":"V-component_of_WINDS"},"data":[0,0,0,0,0,0,0,0,0,0,0,0,0,0,0,0,0,0,0,0,0,0,0,0,0,0,0,0,0,0,0,0,0,0,0,0,0,0,0,0,0,0,0,0,0,0,0,0,0,0,0,0,0,0,0,0,0,0,3.9055,3.9056,0,3.9099,3.91,3.91,3.9001,3.8998,3.8995,3.8992,3.9036,3.904,3.9044,0,0,0,0,0,0,0,0,0,0,0,0,0,3.8886,3.8889,3.9055,3.9056,3.9056,3.9099,3.91,3.91,3.9002,3.8998,3.8994,3.899,3.9035,3.904,3.9045,0,0,0,0,0,0,0,0,0,0,0,0,0,3.8947,3.889,3.9055,3.9012,3.9009,3.9099,3.91,3.91,3.9002,3.8998,3.8993,3.8988,3.9033,3.9039,3.9045,3.9179,0,0,3.9064,3.9067,0,0,0,0,0,0,0,0,3.8944,3.8954,3.9018,3.9015,3.9012,3.904,3.9056,3.9127,3.9004,3.9005,3.8992,3.8986,3.9041,3.9046,3.9065,3.9181,3.9183,3.9065,3.9069,3.9071,3.9073,0,0,0,0,0,0,0,3.894,3.8951,3.9072,3.9019,3.9015,3.8991,3.8994,3.9069,3.9049,3.9004,3.8997,3.9004,3.9038,3.9059,3.9065,3.9183,3.9065,3.907,3.9074,3.9076,3.9412,3.9417,0,0,0,0,0,0,3.8941,3.8948,3.9071,3.9074,3.8965,3.8998,3.9002,3.9035,3.9048,3.9045,3.9008,3.8999,3.9051,3.9058,3.9067,3.9224,3.9071,3.9077,3.9081,3.9406,3.9413,3.9418,0,0,0,0,0,0,3.8938,3.8953,3.9069,3.9009,3.9022,3.9006,3.9044,3.9039,3.9059,3.9051,3.9047,3.9033,3.9048,3.9058,3.9152,3.9224,3.908,3.9085,3.94,3.9408,3.9416,3.9539,0,0,0,0,0,0,3.8933,3.8952,3.9003,3.9011,3.9026,3.9154,3.9049,3.9043,3.9071,3.9059,3.9073,3.9071,3.9045,3.9143,3.9158,3.923,3.909,3.9394,3.9404,3.9413,3.9529,3.955,3.9569,0,0,0,0,0,3.8928,3.9035,3.9006,3.9021,3.9088,3.9158,3.9167,3.9135,3.9077,3.9127,3.9122,3.907,3.9214,3.9154,3.9169,3.9244,3.9389,3.9401,3.9412,3.9519,3.9546,3.9568,0,0,0,0,0,0,3.9035,3.9036,3.9003,3.9116,3.9138,3.9141,3.9204,3.9164,3.9202,3.919,3.9148,3.9152,3.9254,3.9259,3.9191,3.9374,3.9292,3.9307,3.9368,3.9393,3.9412,3.9409,3.9095,0,0,0,0,0,3.9072,3.9129,3.9127,3.9227,3.924,3.9221,3.925,3.9224,3.9244,3.9253,3.9254,3.9276,3.9326,3.936,3.9405,3.9529,3.9531,3.9589,3.9609,3.9625,3.9639,3.9705,3.9731,3.9457,3.9457,3.9456,0,0,3.9149,3.9157,3.9195,3.9249,3.9263,3.9323,3.9229,3.9296,3.934,3.9263,3.9351,3.9354,3.9375,3.9485,3.9534,3.9492,3.9715,3.964,3.9653,3.9658,3.972,3.9745,3.9769,3.9465,3.9463,3.9462,0,0,3.9319,3.9331,3.9416,3.9432,3.9455,3.9442,3.9462,3.9472,3.9471,3.956,3.9503,3.9555,3.9642,3.966,3.9681,3.9861,3.9814,3.9877,3.9981,4.0046,4.0068,4.0087,4.0151,4.0174,3.989,3.9891,3.9891,0,3.9412,3.95,3.9465,3.9537,3.9562,3.9496,3.9583,3.96,3.9636,3.9655,3.9608,3.9717,3.9727,3.984,3.9884,3.9903,3.9925,3.9874,4.0068,4.0086,4.0103,4.0164,4.0188,3.9898,3.9897,3.9896,3.9896,0,3.9612,3.9675,3.9741,3.9778,3.9811,3.989,3.9867,3.9905,3.9877,3.9869,3.9961,3.9971,4.0017,4.0043,4.0015,4.0153,4.0126,4.0074,3.999,4.0137,4.0193,4.0216,3.9909,3.9906,3.9904,3.9902,0,0,3.9849,3.9868,3.9893,3.991,3.9931,3.9978,4.0054,4.01,4.0134,4.0162,4.0224,4.03,4.0253,4.0276,4.0251,4.0308,4.045,4.0249,4.0249,4.0286,4.0602,4.064,4.0668,4.042,4.0424,4.0428,4.06,0,4.0017,4.0148,4.012,4.0249,4.0306,4.0246,4.0312,4.0332,4.0327,4.0375,4.0369,4.0424,4.0357,4.0371,4.0425,4.0421,4.0513,4.0409,4.0478,4.048,4.0473,4.0697,4.0737,4.0899,4.0622,4.0625,4.0628,0,4.023,4.0267,4.0402,4.0415,4.0438,4.0498,4.0539,4.0586,4.0608,4.06,4.0628,4.0591,4.0667,4.0583,4.0687,4.0617,4.0644,4.0646,4.0652,4.0656,4.0562,4.0707,4.095,4.0974,4.0662,4.066,4.0657,0,4.0389,4.0473,4.0564,4.0581,4.0598,4.0642,4.0651,4.0668,4.0699,4.0734,4.0754,4.0798,4.0822,4.0857,4.0834,4.0775,4.0942,4.0856,4.0937,4.0938,4.0974,4.0972,4.1224,4.0993,4.0993,4.0992,4.0992,0,4.0579,4.0664,4.0636,4.0692,4.0786,4.0753,4.0846,4.0848,4.0865,4.0921,4.0871,4.0924,4.0891,4.0942,4.0924,4.1013,4.1024,4.102,4.1014,4.1024,4.1025,4.104,4.1028,4.0999,4.0997,4.0996,4.0995,0,4.0772,4.0756,4.0852,4.0862,4.0866,4.0935,4.0943,4.0995,4.0987,4.1059,4.1073,4.1061,4.1118,4.1099,4.116,4.1149,4.1262,4.1241,4.1254,4.1249,4.1331,4.1324,4.1602,4.1637,4.1384,4.1386,4.1388,0,4.0893,4.0957,4.0974,4.1008,4.1022,4.1077,4.1108,4.1079,4.1113,4.1145,4.1194,4.1247,4.1287,4.1382,4.1378,4.1425,4.1405,4.15,4.1412,4.142,4.1406,4.1403,4.1409,4.1517,4.152,4.1522,4.1524,0,4.1111,4.1101,4.1147,4.1193,4.1231,4.1265,4.1294,4.1325,4.1298,4.1339,4.1397,4.143,4.1493,4.1546,4.1589,4.1598,4.1557,4.1552,4.1573,4.1584,4.1588,4.1587,4.1301,4.1546,4.1543,4.1542,4.1541,4.154,4.1271,4.1325,4.1346,4.14,4.142,4.1449,4.1499,4.1499,4.1547,4.1597,4.1577,4.1644,4.1666,4.1719,4.1735,4.1787,4.175,4.1781,4.1789,4.1797,4.1807,4.1581,4.1794,4.1794,4.1793,4.1793,4.1792,0,4.1485,4.1497,4.1547,4.159,4.1633,4.1592,4.1623,4.1662,4.1722,4.1746,4.1788,4.1855,4.1908,4.1909,4.1958,4.1999,4.1982,4.2013,4.2009,4.2012,4.1837,4.1814,4.2027,4.2027,4.2026,4.2026,4.2026,4.2026,4.1602,4.1692,4.1685,4.1785,4.1795,4.1861,4.1882,4.1909,4.1928,4.2006,4.205,4.2051,4.2066,4.2116,4.2162,4.2161,4.2181,4.222,4.2212,4.2048,4.2024,4.2002,4.198,4.2224,4.2225,4.2382,4.2384,4.2385]}]]